Location: Buchloe
(48.0161°N, 10.7316°E)
Time: 17:32:41
(UTC+02:00)

ISS - Pass Details

Date: 21 May 2018
Orbit: 402 x 407 km, 51.6° (Epoch: 27 May)

Event Time Altitude Azimuth Distance (km) Brightness Sun altitude
Rises 02:19:51 0° 287° (WNW) 2,319 0.0 -20.3°
Reaches altitude 10° 02:21:59 10° 294° (WNW) 1,458 -0.9 -20.1°
Maximum altitude 02:25:09 47° 9° (N) 547 -2.8 -20.0°
Drops below altitude 10° 02:28:19 10° 85° (E) 1,456 -0.7 -19.8°
Sets 02:30:27 0° 92° (E) 2,314 0.2 -19.7°
